Find Starlink 32402

NORAD ID: 61708 Int'l Des: 2024-196 Owner: SPXS Country: US Constellation: starlink operational
LEOCIRCULAR

Live Position

Loading 3D Globe...

About Starlink 32402

Description loading...

Upcoming Passes

Passes for default location (London). Set your location on the main map for personalized predictions.

Altitude History

Loading altitude history...

Two-Line Element Set

1 61708U 24196B 26132.80988610 -.00000175 00000-0 62259-5 0 9991
2 61708 53.1611 163.5127 0001256 83.2135 276.9009 15.30191195 86970
Epoch: May 12, 2026 • Age: 20 hours

Current Status

Altitude 494.2 km
Velocity 7.62 km/s
Sub-Earth Point -52.26°S, 18.01°W
Launch Date Oct 30, 2024
Age 1.5 years
Type internet

Technical Details

Classification Payload
Mass 730.00 kg
Dry Mass 700.00 kg
Total Mass 730.00 kg
Length 0.30 m
Diameter 4.10 m
Span 29.00 m
Shape Box + pan
Manufacturer SPXS
Bus Type Starlink V2M
Phase Status In Orbit
Owner/State SPXS/US

Most Searched